Regional Weather Roundup
Issued by NWS Charleston, SC

Current Version | Previous Version | Graphics & Text | Print | Product List | Glossary On
Versions: 1 2 3 4 5 6 7 8 9 10 11 12 13 14 15 16 17 18 19 20 21 22 23 24 25 26 27 28 29 30 31 32 33 34 35 36 37 38 39 40 41 42 43 44 45 46 47 48 49 50
000
ASUS42 KCHS 210727
RWRCHS

REGIONAL WEATHER ROUNDUP
NATIONAL WEATHER SERVICE CHARLESTON SC
200 AM EST SAT JAN 21 2017

NOTE: "FAIR" INDICATES FEW OR NO CLOUDS BELOW 12,000 FEET WITH NO
SIGNIFICANT WEATHER AND/OR OBSTRUCTIONS TO VISIBILITY.

NOT ALL STATIONS ARE QUALITY CONTROLLED. USE DATA WITH CAUTION...
ESPECIALLY DEWPOINT OBSERVATIONS.

SCZ027-030-031-034>040-042>050-210800-
...SOUTHEAST SOUTH CAROLINA...

CITY           SKY/WX    TMP DP  RH WIND       PRES   REMARKS
N CHARLESTON   CLOUDY    65  62  90 SW8       29.91R
WATERFRONT PRK   N/A     65  63  93 SW6       29.90S
MOUNT PLEASANT PTSUNNY   66  64  94 SW8       29.91S
JOHNS ISLAND   DRIZZLE   66  64  94 CALM      29.91F
PINOPOLIS        N/A     64  63  94 SW7       29.81R
MONCKS CORNER  CLOUDY    64  61  88 SW10      29.90S
SUMMERVILLE    CLOUDY   N/A N/A N/A CALM      29.92S
BEAUFORT MCAS  CLOUDY    64  62  93 CALM      29.90S
BEAUFORT ARPT  PTSUNNY   63  63 100 S3        29.90S
HILTON HEAD IS CLOUDY    63  63 100 S3        29.91S
WALTERBORO     CLOUDY    63  63 100 CALM      29.91F
ALLENDALE      CLOUDY    64  63  94 CALM      29.88S

...SOUTHERN MIDLANDS AND PEE DEE...

CITY           SKY/WX    TMP DP  RH WIND       PRES   REMARKS
GEORGETOWN     CLOUDY    61  59  94 CALM      29.92S
KINGSTREE      FAIR      55  54  94 SE3       29.91R
ORANGEBURG     CLOUDY    61  59  93 S3        29.89S
BARNWELL       PTSUNNY   64  63  94 CALM      29.90R
AIKEN          FAIR      55  54  94 CALM      29.92R
MANNING        PTSUNNY   55  54  94 CALM      29.90S
COLUMBIA       PTCLDY    59  56  89 CALM      29.87F
SUMTER         PTCLDY    57  55  94 CALM      29.87S
FLORENCE       FOG       58  57  97 CALM      29.90R VSB 1/2
MYRTLE BEACH   MOCLDY    61  55  82 CALM      29.93S
N MYRTLE BEACH FOG       54  54 100 CALM      29.91R VSB 3/4

$$

GAZ063-065-086>088-099>101-113>116-118-119-134>141-150-210800-
...SOUTHEAST GEORGIA...

CITY           SKY/WX    TMP DP  RH WIND       PRES   REMARKS
SAVANNAH ARPT  CLOUDY    65  62  90 S5        29.90S
HUNTER AAF     CLOUDY    65  65 100 S3        29.88R
FORT STEWART   CLOUDY    64  63  94 CALM      29.88R FOG
STATESBORO     CLOUDY    64  32  30 CALM      29.90S FOG
SYLVANIA       CLOUDY   N/A N/A N/A CALM      29.90S
CLAXTON        FOG      N/A N/A N/A CALM      29.90S VSB 1/4

...CSRA...CENTRAL AND FAR SOUTHEAST GEORGIA...

CITY           SKY/WX    TMP DP  RH WIND       PRES   REMARKS
THOMSON        CLEAR     57  57 100 CALM      29.93R
AUGUSTA-BUSH   CLOUDY    61  58  90 CALM      29.89R
AUGUSTA-DANIEL PTCLDY    63  57  81 S6        29.89S
SWAINSBORO     CLOUDY    64  64 100 S3        29.90S
VIDALIA        CLOUDY    66  66 100 SW5       29.90R
EASTMAN        CLOUDY    67  67 100 CALM      29.92R
HAZLEHURST     CLOUDY    69  69 100 SW6       29.89S
ALMA           CLOUDY    68  67  96 SW9       29.90R
WAYCROSS       CLOUDY    71  71 100 SW8       29.91S
JESUP          PTSUNNY   68  64  88 CALM      29.91R
BAXLEY         CLOUDY    70  70 100 SW5       29.90S
BRUNSWICK      PTCLDY    68  68 100 SW8       29.92S
SAINT SIMONS   CLEAR     67  65  93 SW7       29.91S

$$

SCZ027-028-034-036>038-045-046-048>050-GAZ119-141-210800-
...LAKE AND SUPPLEMENTAL COASTAL OBSERVATIONS...

STATION/POSITION TIME  TEMP    WIND        PRES    WAVE   SWELL
                       AIR SEA DIR/SP/G            HT/PER HT/PER/DIR
                 (UTC) (F)     (DEG/KT/KT) (MB)    (FT/S) (FT/S/D)
WINYAH BAY       NOT AVBL
LAKE MURRAY      0720   59        CALM     1011.5
ACE BASIN NERRS  0545   65        CALM     1013.0
FORT PULASKI     0700   63 58  210/  3/  3 1012.8
SAPELO ISLAND    0600   67     180/  6     1013.0

$$

ANZ835-935-AMZ111-154-330-350-352-354-370-450-454-472-210800-
...C-MAN AND BUOY OBSERVATIONS...

STATION/POSITION TIME  TEMP    WIND        PRES    WAVE   SWELL
                       AIR SEA DIR/SP/G            HT/PER HT/PER/DIR
                 (UTC) (F)     (DEG/KT/KT) (MB)    (FT/S) (FT/S/D)
BUOY 41004       0650   70 68  210/ 10/ 12 1012.6R   2/14   2/100/14
BUOY 41008       0650   64 61  180/ 10/ 10 1012.5F   2/12   2/ 70/12
FOLLY BEACH CMAN 0700   62     220/  8/ 10 1013.4F
CAPERS NEARSHORE 0708   58 56  230/  8/ 10 1012.6S
FRIPP NEARSHORE  0708   61 58  160/  2/  4 1012.0F


STATION/POSITION TIME  TEMP    WIND        PRES    WAVE   SWELL
                       AIR SEA DIR/SP/G            HT/PER HT/PER/DIR
                 (UTC) (F)     (DEG/KT/KT) (MB)    (FT/S) (FT/S/D)
5E ST. MARYS GA  0700      64                N/A     2/12   2/ 80/12
FRYING PAN BUOY  0710   70 71  240/ 10/ 14 1012.8
BUOY 41025       0650   60 75  350/ 16/ 19 1012.0R   5/11   3/ 70/11
CAPE LOOKOUT NC  0700   52      10/  6/  8 1012.4R
BUOY 41002       0650   72 70  250/ 14/ 17 1012.6S   6/12   5/ 50/12
BUOY 41010       NOT AVBL
ST AUGUSTINE FL  0700   66 63  230/  5/  7 1015.1R


$$




USA.gov is the U.S. government's official web portal to all federal, state and local government web resources and services.